Traverse City, MI

10:12 AM EDT on April 19, 2018 (GMT -0400)
Cherry Capital

Weather History for KTVC - August, 2013

Change the Weather History Date:

Monday, August 26, 2013

  Actual Average Record
Temperature  
Mean Temperature 80 °F 66 °F  
Max Temperature 90 °F 77 °F 98 °F (1909)
Min Temperature 70 °F 56 °F 40 °F (1917)
Degree Days  
Heating Degree Days 0 2  
Month to date heating degree days 22 29  
Since 1 June heating degree days 152 169  
Since 1 July heating degree days 50 57  
Cooling Degree Days 15 3  
Month to date cooling degree days 99 102  
Year to date cooling degree days 434 355  
Since 1 June cooling degree days 392 335  
Growing Degree Days 30 (Base 50)    
Moisture  
Dew Point 67 °F    
Average Humidity 68    
Maximum Humidity 93    
Minimum Humidity 43    
Precipitation  
Precipitation 0.20 in 0.11 in 2.32 in (2000)
Month to date precipitation 1.06 2.83  
Year to date precipitation 17.65 20.56  
Sea Level Pressure  
Sea Level Pressure 29.99 in    
Wind  
Wind Speed 6 mph (West)    
Max Wind Speed 20 mph    
Max Gust Speed 26 mph    
Visibility 9 miles    
Events Rain , Thunderstorm    
T = Trace of Precipitation, MM = Missing Value Source: NWS Daily Summary

Daily Weather History Graph

Daily Weather History Graph

Search for Another Location

Airport or City:

Astronomy

Aug. 26, 2013 Rise Set
Actual Time 6:57 AM EDT 8:29 PM EDT
Civil Twilight 6:27 AM EDT 8:59 PM EDT
Nautical Twilight 5:50 AM EDT 9:36 PM EDT
Astronomical Twilight 5:10 AM EDT 10:16 PM EDT
Moon 11:21 PM EDT (8/26) 1:15 PM EDT (8/26)
Length of Visible Light 14h 32m
Length of Day
13h 31m
Waning Gibbous, 67% of the Moon is Illuminated
Aug 26
Waning Gibbous
Aug 28
Last Quarter
Sep 5
New
Sep 12
First Quarter
Sep 19
Full

Hourly Weather History & Observations

Time (EDT) Temp. Heat Index Dew Point Humidity Pressure Visibility Wind Dir Wind Speed Gust Speed Precip Events Conditions
12:53 AM 80.1 °F 81.7 °F 64.0 °F 58% 29.99 in 10.0 mi SW 11.5 mph 24.2 mph N/A   Partly Cloudy
1:53 AM 79.0 °F - 64.0 °F 60% 29.98 in 10.0 mi SW 12.7 mph 24.2 mph N/A   Clear
2:53 AM 78.1 °F - 64.9 °F 64% 30.01 in 10.0 mi WSW 8.1 mph - N/A   Clear
3:53 AM 77.0 °F - 66.0 °F 69% 29.99 in 10.0 mi Variable 4.6 mph - N/A   Partly Cloudy
4:53 AM 77.0 °F - 66.0 °F 69% 29.99 in 10.0 mi SW 8.1 mph - N/A   Clear
5:53 AM 78.1 °F - 66.0 °F 66% 29.98 in 10.0 mi WSW 8.1 mph - N/A Thunderstorm Partly Cloudy
6:12 AM 75.2 °F - 66.2 °F 73% 30.01 in 2.5 mi WSW 10.4 mph - 0.09 in Rain Heavy Rain
6:22 AM 73.4 °F - 68.0 °F 83% 30.02 in 7.0 mi SSW 4.6 mph - 0.09 in Rain , Thunderstorm Light Rain
6:50 AM 73.4 °F - 68.0 °F 83% 30.02 in 9.0 mi Calm Calm - 0.09 in Rain Light Rain
6:53 AM 73.9 °F - 68.0 °F 82% 30.01 in 10.0 mi Variable 4.6 mph - 0.09 in Rain Light Rain
7:53 AM 75.0 °F - 66.9 °F 76% 30.01 in 9.0 mi West 9.2 mph - 0.00 in   Overcast
8:12 AM 75.2 °F - 66.2 °F 73% 30.07 in 10.0 mi West 12.7 mph - N/A Thunderstorm Thunderstorm
8:23 AM 73.4 °F - 68.0 °F 83% 30.05 in 1.5 mi WNW 13.8 mph 26.5 mph 0.09 in Rain , Thunderstorm Heavy Thunderstorms and Rain
8:28 AM 71.6 °F - 68.0 °F 88% 30.05 in 3.0 mi West 10.4 mph - 0.10 in Rain , Thunderstorm Thunderstorms and Rain
8:53 AM 72.0 °F - 69.1 °F 91% 30.04 in 8.0 mi SSW 4.6 mph - 0.11 in   Overcast
9:53 AM 72.0 °F - 69.1 °F 91% 29.99 in 7.0 mi Variable 5.8 mph - 0.00 in Rain Light Rain
10:53 AM 73.0 °F - 69.1 °F 87% 29.97 in 7.0 mi Variable 3.5 mph - 0.00 in   Overcast
11:53 AM 75.9 °F - 70.0 °F 82% 30.00 in 9.0 mi Calm Calm - N/A   Overcast
12:53 PM 82.0 °F 85.5 °F 69.1 °F 65% 30.01 in 10.0 mi WNW 6.9 mph - N/A   Overcast
1:53 PM 82.9 °F 85.4 °F 66.9 °F 58% 29.98 in 10.0 mi Variable 3.5 mph - N/A   Mostly Cloudy
2:53 PM 84.0 °F 86.5 °F 66.9 °F 56% 29.95 in 10.0 mi NNE 5.8 mph - N/A   Mostly Cloudy
3:53 PM 88.0 °F 90.7 °F 66.9 °F 49% 29.93 in 10.0 mi West 5.8 mph - N/A   Mostly Cloudy
4:53 PM 88.0 °F 88.7 °F 63.0 °F 43% 29.94 in 10.0 mi West 10.4 mph 18.4 mph N/A   Scattered Clouds
5:53 PM 86.0 °F 86.8 °F 63.0 °F 46% 29.94 in 10.0 mi WNW 15.0 mph - N/A   Scattered Clouds
6:53 PM 82.9 °F 84.4 °F 64.0 °F 53% 29.95 in 10.0 mi WNW 11.5 mph - N/A   Scattered Clouds
7:53 PM 81.0 °F 83.0 °F 66.0 °F 60% 29.94 in 10.0 mi West 6.9 mph - N/A   Scattered Clouds
8:53 PM 75.9 °F - 66.0 °F 71% 29.94 in 10.0 mi Calm Calm - N/A   Scattered Clouds
9:53 PM 73.9 °F - 66.9 °F 79% 29.95 in 10.0 mi Calm Calm - N/A   Scattered Clouds
10:53 PM 71.1 °F - 66.0 °F 84% 29.95 in 10.0 mi Calm Calm - N/A   Clear
11:53 PM 71.1 °F - 66.0 °F 84% 29.94 in 10.0 mi Calm Calm - N/A   Clear